This is the latest recevied weather packets stored in our database for station/object OK2ILA-3. If no packets are shown the sender has not sent any weather packets the latest 10 day(s).
| Time | Temp. | Humidity | Pressure | Rain* | Wind** | Luminosity | Snow |
|---|---|---|---|---|---|---|---|
| 1777970772 | 20° C | 2% | 9.2 hPa | 0 mm | - | - | - |
| 1777970166 | 21.11° C | 98% | 9.2 hPa | 0 mm | - | - | - |
| 1777969562 | 22.22° C | 58% | 1123.2 hPa | 0 mm | - | - | - |
| 1777968354 | 21.11° C | 2% | 1123.2 hPa | 0 mm | - | - | - |
| 1777967748 | 21.11° C | 3% | 1123.2 hPa | 0 mm | - | - | - |
| 1777967142 | 20° C | 53% | 17 hPa | 0 mm | - | - | - |
| 1777966539 | 20.56° C | 3% | 4352 hPa | 0 mm | - | - | - |
| 1777965932 | 20.56° C | 34% | 4352 hPa | 0 mm | - | - | - |
| 1777965324 | 20° C | 79% | 4096.2 hPa | 0 mm | - | - | - |
| 1777964719 | 20° C | 57% | 4096.2 hPa | 0 mm | - | - | - |
| 1777964115 | 21.11° C | 58% | 4096.2 hPa | 0 mm | - | - | - |
| 1777963510 | 21.11° C | 70% | 4864 hPa | 0 mm | - | - | - |
| 1777962905 | 21.11° C | 3% | 66.8 hPa | 0 mm | - | - | - |
| 1777962298 | 20.56° C | 2% | 66.8 hPa | 0 mm | - | - | - |
| 1777961695 | 18.89° C | 98% | 66.8 hPa | 0 mm | - | - | - |
| 1777961088 | 18.33° C | 2% | 1868.8 hPa | 0 mm | - | - | - |
| 1777960480 | 17.22° C | 12% | 1868.8 hPa | 0 mm | - | - | - |
| 1777959876 | 16.11° C | 98% | 819.2 hPa | 0 mm | - | - | - |
| 1777959271 | 16.11° C | 12% | 195.2 hPa | 0 mm | - | - | - |
| 1777958667 | 15.56° C | 57% | 4096.7 hPa | 0 mm | - | - | - |
| 1777958063 | 15° C | 43% | 4096.7 hPa | 0 mm | - | - | - |
| 1777957459 | 15° C | 100% | 822.8 hPa | 0 mm | - | - | - |
| 1777956854 | 14.44° C | 12% | 4096.3 hPa | 0 mm | - | - | - |
| 1777956252 | 13.89° C | 12% | 4096.3 hPa | 0 mm | - | - | - |
| 1777955646 | 13.89° C | 56% | 4096.3 hPa | 0 mm | - | - | - |
* Rain latest 24 hours (hover to see other rain measurements)
** Current wind speed in m/s (hover to see current wind gust speed)